Tracking 29892 objects as of 21-Nov-2024
HD Live streaming from Space Station
objects crossing your sky now

SL-14 R/B

Track SL-14 R/B now!
10-day predictions


NORAD ID: 21398
Int'l Code: 1991-039B
Perigee: 619.2 km
Apogee: 646.3 km
Inclination: 82.5 °
Period: 97.2 minutes
Semi major axis: 7003 km
RCS: 4.9347 m2 (large)
Launch date: June 4, 1991
Source: Commonwealth of Independent States (former USSR) (CIS)
Launch site: PLESETSK MISSILE AND SPACE COMPLEX (PKMTR)

Note: This is a ROCKET BODY
Your satellite tracking list
Your tracking list is empty




NASA's NSSDC Master Catalog

Two Line Element Set (TLE):
1 21398U 91039B   24325.81163150  .00000847  00000-0  10564-3 0  9994
2 21398  82.5242 218.9222 0019348 285.9179  73.9902 14.81190989784234
Source of the keplerian elements: AFSPC